Tracking 20083 objects as of 9-Dec-2019
HD Live streaming from Space Station
objects crossing your sky now

COSMOS 2251 DEB

Track COSMOS 2251 DEB now!
10-day predictions


NORAD ID: 33894
Int'l Code: 1993-036CX
Perigee: 759.6 km
Apogee: 1,665.4 km
Inclination: 73.8 °
Period: 109.5 minutes
Semi major axis: 7583 km
RCS: 0.0609 m2 (small)
Launch date: June 16, 1993
Source: Commonwealth of Independent States (former USSR) (CIS)
Launch site: PLESETSK MISSILE AND SPACE COMPLEX (PKMTR)

Note: This is SATELLITE DEBRIS
aabbcc
Your satellite tracking list
Your tracking list is empty




NASA's NSSDC Master Catalog

Two Line Element Set (TLE):
1 33894U 93036CX  19343.48953784  .00000128  00000-0  16235-3 0  9997
2 33894  73.7676 118.3211 0597223 347.0710  11.5611 13.14616792518146
Source of the keplerian elements: AFSPC